Terug naar catalogus

NOAA 16 DEB

ActiefPO
NORAD 41418·DEBRIS·🇺🇸 United States

Gelanceerd Sep 21, 2000 vanaf Vandenberg Space Force Base

Loading…

Volgende Passages (komende 24 uur)

TLE

VersSource: Space-Track

Epoch: Sep 14, 2026, 10:57 UTC

1 41418U 00055KX  26257.45635709  .00003795  00000-0  94067-3 0  9992
2 41418  99.0005 142.1680 0024350 200.1962 159.8271 14.52381382550234

Volg NOAA 16 DEB in realtime met AllMySat

Download on the App Store